Regional Weather Roundup
Issued by NWS

Home | Current Version | Previous Version | Graphics & Text | Print | Product List | Glossary On
Versions: 1 2 3 4 5 6 7 8 9 10 11 12 13 14 15 16 17 18 19 20 21 22 23 24 25 26 27 28 29 30 31 32 33 34 35 36 37 38 39 40 41 42 43 44 45 46 47 48 49 50
000
ASUS43 KIND 121159
RWRIN

WEATHER ROUNDUP FOR INDIANA
NATIONAL WEATHER SERVICE INDIANAPOLIS IN
700 AM EST FRI FEB 12 2016

NOTE: "FAIR" INDICATES FEW OR NO CLOUDS BELOW 12,000 FEET WITH NO
SIGNIFICANT WEATHER AND/OR OBSTRUCTIONS TO VISIBILITY.

* - STATION DOES NOT REPORT WEATHER SUCH AS PRECIPITATION OR FOG.

+ - STATION NOT QUALITY CONTROLLED BY THE NATIONAL WEATHER SERVICE.
    USE DATA WITH CAUTION...ESPECIALLY DEWPOINT AND RELATIVE
    HUMIDITY OBSERVATIONS.

INZ001>003-010>013-019-020-121300-
NORTHWEST INDIANA

CITY           SKY/WX    TMP DP  RH WIND       PRES   REMARKS
GARY /AIRPORT/ CLOUDY    21  10  63 SW5       30.17S WCI  15
MONTICELLO +   CLOUDY    19  10  68 SW3       30.17F
6HR MIN TEMP:  16; 6HR MAX TEMP:  19;

RENSSELAER +   CLOUDY    21  10  63 SW7       30.17F WCI  13

$$

LMZ046-743>745-121300-
SOUTHERN LAKE MICHIGAN

STATION/POSITION TIME  TEMP    WIND        PRES    WAVE
                       AIR SEA DIR/SP/G            HT
                 (UTC) (F)     (DEG/KT/KT) (MB)    (FT)
BURNS HARBOR     1100   20     240/ 10/ 13 1022.0S
MICHIGAN CITY    1100   19     200/ 13/ 15   N/A

$$

INZ004-005-014>016-021>024-121300-
NORTH CENTRAL INDIANA

CITY           SKY/WX    TMP DP  RH WIND       PRES   REMARKS
ELKHART        CLOUDY    16   7  67 SW7       30.13  WCI   6
GOSHEN         CLOUDY    18   8  65 SW9       30.13F WCI   7
6HR MIN TEMP:   2; 6HR MAX TEMP:  18;

SOUTH BEND     CLOUDY    15   9  76 SW10      30.14S WCI   2
6HR MIN TEMP:   5; 6HR MAX TEMP:  15;


$$

INZ006>009-017-018-025>027-121300-
NORTHEAST INDIANA

CITY           SKY/WX    TMP DP  RH WIND       PRES   REMARKS
ANGOLA *+      CLOUDY    16   9  73 SW6       30.10F WCI   7
FORT WAYNE     CLOUDY    17   9  70 SW6       30.16F WCI   9
6HR MIN TEMP:  10; 6HR MAX TEMP:  17;


$$

INZ028-029-035-036-043>045-051>053-121300-
WEST CENTRAL INDIANA

CITY           SKY/WX    TMP DP  RH WIND       PRES   REMARKS
GREENCASTLE +  CLOUDY    21  10  63 CALM      30.18S
LAFAYETTE      CLOUDY    19  12  74 SW3       30.18F
6HR MIN TEMP:  15; 6HR MAX TEMP:  19;

TERRE HAUTE    CLOUDY    22  13  68 CALM      30.20S
6HR MIN TEMP:  18; 6HR MAX TEMP:  23;


$$

INZ030>032-037>040-046>048-054>057-064-065-121300-
CENTRAL INDIANA

CITY           SKY/WX    TMP DP  RH WIND       PRES   REMARKS
COLUMBUS       CLOUDY    21  12  68 CALM      30.20
FRANKFORT +    CLOUDY    20   7  57 CALM      30.18F
6HR MIN TEMP:  17; 6HR MAX TEMP:  20;

GREENWOOD *+   CLOUDY    21  14  73 CALM      30.18F
INDIANAPOLIS   CLOUDY    20   8  60 S3        30.16F
6HR MIN TEMP:  19; 6HR MAX TEMP:  21;

-EAGLE CREEK   CLOUDY    21  10  62 CALM      30.17S
6HR MIN TEMP:  19; 6HR MAX TEMP:  21;

KOKOMO *+      CLOUDY    19  10  68 SW6       30.17S WCI  11
6HR MIN TEMP:  10; 6HR MAX TEMP:  19;

MT COMFORT *+  CLOUDY    19  12  73 S3        30.17F
SHELBYVILLE    CLOUDY    21  10  62 S5        30.17F WCI  15
6HR MIN TEMP:  15; 6HR MAX TEMP:  21;


$$

INZ033-034-041-042-049-050-058-059-121300-
EAST CENTRAL INDIANA

CITY           SKY/WX    TMP DP  RH WIND       PRES   REMARKS
MUNCIE         CLOUDY    19   7  59 SW6       30.16S WCI  11
6HR MIN TEMP:  11; 6HR MAX TEMP:  19;


$$

INZ060-061-067>069-081>083-085>088-121300-
SOUTHWEST INDIANA

CITY           SKY/WX    TMP DP  RH WIND       PRES   REMARKS
EVANSVILLE     LGT SNOW  27  19  72 W5        30.22R WCI  22
6HR MIN TEMP:  27; 6HR MAX TEMP:  29; 6HR PCP: TRACE;

HUNTINGBURG *+ CLOUDY    27  16  63 N3        30.20S
6HR MIN TEMP:  25; 6HR MAX TEMP:  27;


$$

INZ062-063-066-070>080-084-089>092-121300-
SOUTH CENTRAL AND SOUTHEAST INDIANA

CITY           SKY/WX    TMP DP  RH WIND       PRES   REMARKS
BLOOMINGTON    CLOUDY    22  12  65 CALM      30.17F
6HR MIN TEMP:  19; 6HR MAX TEMP:  22;

MADISON *+     CLOUDY    23  12  63 CALM      30.20F
SEYMOUR +      CLOUDY    25  10  54 SE5       30.19F WCI  19

$$




USA.gov is the U.S. government's official web portal to all federal, state and local government web resources and services.